Location: Karlsruhe
(49.0131°N, 8.3874°E)
Time: 14:31:26
(UTC+01:00)

ISS - Pass Details

Date: 09 January 2018
Orbit: 402 x 406 km, 51.6° (Epoch: 16 January)

Event Time Altitude Azimuth Distance (km) Brightness Sun altitude
Exits shadow 05:50:13 37° 63° (ENE) 656 -2.4 -23.5°
Drops below altitude 10° 05:52:28 10° 86° (E) 1,466 0.1 -23.1°
Sets 05:54:34 0° 91° (E) 2,327 1.5 -22.8°
